Theta_e
352 353 352 356 357 354 355 356 353 350 346 341 339 336 335 338 352 353 352 351 351 352 351 347 345 345 348 347 344 342 336 333 328 330 340 345 344 344 347 344 346 345 345
352 353 355 356 358 356 355 355 356 351 344 340 339 337 338 336 346 354 352 355 351 349 349 349 349 354 350 349 345 344 345 337 333 329 337 341 343 343 346 342 344 346 342
351 353 354 354 356 356 357 357 356 354 351 347 346 344 342 343 349 351 347 343 341 343 344 346 348 350 348 348 348 345 343 345 337 334 334 337 340 339 340 343 341 340 341
348 351 351 353 355 356 356 356 357 356 355 354 355 355 351 347 341 341 339 340 339 342 343 346 348 346 346 347 344 342 344 339 338 336 334 335 337 339 340 339 337 338 336
352 352 351 353 354 355 354 354 355 356 355 353 352 353 351 342 339 336 335 337 338 335 336 345 346 346 345 340 339 336 342 340 336 332 331 333 331 335 336 338 337 339 333
354 352 351 354 351 354 352 351 349 348 346 345 343 346 350 351 338 339 339 338 339 334 331 332 340 345 341 338 339 342 343 342 340 337 333 332 331 335 337 338 334 327 325
350 351 350 349 347 347 346 346 344 341 341 341 340 340 342 348 340 339 340 340 336 336 336 343 345 349 345 341 341 341 338 338 341 339 334 332 333 336 337 336 334 330 327
347 345 345 344 344 344 346 346 343 344 345 344 346 344 341 343 337 336 340 341 339 339 342 342 341 342 343 342 340 337 339 339 339 342 338 337 339 339 339 337 336 334 333
344 345 346 346 346 345 344 344 343 342 342 343 344 343 342 342 334 332 334 337 338 337 338 336 335 337 330 331 334 333 336 340 334 334 337 336 335 336 338 337 334 331 328
342 343 344 344 343 342 341 342 342 341 342 343 340 340 338 338 327 328 331 335 333 332 334 335 328 327 325 327 337 333 330 336 337 336 336 336 335 337 336 339 336 331 327
343 344 345 344 343 342 342 343 342 342 338 337 337 337 335 332 330 324 324 331 330 330 331 335 331 323 321 322 325 332 333 335 336 334 332 332 332 332 333 334 336 333 328
345 343 342 343 347 343 340 340 340 338 337 333 333 333 336 334 325 323 322 322 327 333 335 334 331 320 319 321 325 324 326 332 334 331 329 328 328 329 331 334 334 332 331
342 341 341 337 338 341 338 338 334 336 335 329 330 332 332 330 330 322 324 323 326 331 331 328 321 319 321 323 323 324 327 334 332 330 328 327 327 330 329 328 327 326 326
340 339 339 338 333 339 337 336 331 326 330 326 328 328 328 324 324 326 328 326 325 327 326 328 324 324 321 322 325 324 325 330 330 328 326 326 325 327 324 326 325 324 322
339 339 340 340 335 333 337 328 333 326 326 329 328 327 322 321 323 315 315 324 320 318 315 331 328 328 327 326 324 324 323 322 326 326 326 327 327 325 322 320 321 319 317
342 340 339 339 337 334 336 331 315 314 313 308 309 318 319 312 308 306 303 303 305 307 325 330 331 329 328 331 326 321 322 322 321 324 326 325 324 323 320 318 318 318 317
339 339 337 330 333 334 335 335 334 320 316 311 306 306 307 306 304 301 301 302 305 314 325 326 326 326 326 331 329 322 321 323 324 325 324 323 322 321 320 318 317 317 315
342 331 336 335 333 336 333 331 334 333 327 326 312 310 307 306 303 300 301 306 324 321 325 325 324 326 326 326 325 324 328 328 324 325 324 322 320 320 319 316 315 315 315
339 338 338 337 337 332 332 333 337 331 329 328 324 314 309 302 301 302 302 319 324 327 326 326 326 325 326 326 325 324 324 324 324 324 322 321 319 318 316 316 315 312 313
336 334 334 333 330 330 331 333 331 329 329 332 330 327 320 315 319 320 319 324 326 329 329 329 328 327 327 326 325 323 324 325 325 324 323 320 319 319 316 316 318 317 316
339 338 334 332 329 330 331 330 327 325 326 329 332 331 316 322 323 326 325 328 329 330 330 330 329 327 328 328 324 324 324 324 325 324 324 322 318 315 316 316 319 318 320
338 333 333 332 330 332 329 326 324 327 329 326 329 325 309 327 326 328 331 332 334 333 332 331 329 329 329 328 327 327 327 327 326 323 324 323 323 322 321 321 319 318 317
327 324 322 324 333 329 326 327 327 328 329 328 329 330 325 326 331 332 333 334 334 334 333 332 330 329 332 330 330 330 327 326 328 325 322 323 321 322 322 321 319 318 317
326 323 320 320 329 327 326 324 327 322 326 329 330 333 330 329 332 331 332 333 333 333 334 332 331 332 331 329 329 331 332 332 329 325 324 322 319 313 318 319 319 319 318
325 323 322 319 326 325 326 328 329 327 327 328 333 333 332 331 331 331 333 332 331 332 331 332 332 332 334 330 327 326 314 306 322 312 322 321 318 317 317 318 316 316 315
328 326 322 323 327 328 327 326 324 326 325 324 324 325 328 332 332 330 332 331 329 328 329 332 333 333 333 329 324 306 292 296 310 304 322 321 319 317 317 318 316 317 317
Wind_Speed
11 10 9 10 10 7 6 6 7 6 7 7 6 6 7 6 6 6 6 6 6 6 5 6 8 6 5 4 3 2 2 3 3 4 2 4 4 5 5 4 5 5 4
13 10 11 9 8 7 7 7 6 7 6 8 7 7 7 8 7 6 6 5 5 5 6 6 7 5 7 6 3 5 4 4 3 4 2 3 5 6 6 7 6 6 6
7 9 9 8 8 9 9 8 7 7 8 9 8 8 8 6 5 4 7 6 6 7 6 7 7 6 6 2 2 2 2 3 1 1 4 3 3 2 3 3 6 4 5
7 7 7 7 8 8 8 7 8 8 9 10 11 12 10 14 18 15 12 11 8 10 6 6 6 7 7 4 4 3 3 2 4 4 3 4 3 4 4 3 3 2 4
7 6 6 4 4 3 4 5 4 5 7 8 7 6 8 12 11 8 17 18 11 10 7 5 7 9 8 7 4 5 4 1 3 4 9 9 7 5 5 2 1 2 4
7 6 6 6 5 4 2 4 5 5 5 5 6 4 0 8 20 27 20 14 10 9 9 8 9 13 9 12 14 11 9 9 12 8 12 16 17 11 4 7 5 3 3
6 5 5 5 6 4 4 4 5 4 4 4 3 4 3 2 9 12 16 9 7 6 8 8 9 7 9 6 5 3 1 11 16 12 12 14 12 12 10 6 5 3 4
7 5 6 6 5 5 6 5 3 3 4 2 4 2 1 4 6 8 10 6 5 7 7 7 6 8 6 4 4 4 5 5 6 8 11 9 10 9 12 9 8 5 3
6 6 6 5 5 6 6 5 4 4 4 4 3 6 3 2 4 6 4 3 4 5 6 5 6 5 5 1 1 1 3 3 2 5 8 8 9 10 7 4 6 8 4
4 4 5 5 6 5 3 4 2 2 3 4 5 6 7 6 9 6 2 0 3 3 5 3 9 6 7 6 3 1 3 3 3 2 3 1 5 8 14 11 7 8 4
3 3 3 3 4 3 2 2 2 3 5 5 5 5 6 6 6 8 7 3 1 2 3 2 2 6 6 6 6 4 3 5 3 2 2 3 3 4 3 2 3 7 5
4 3 3 2 2 2 2 2 3 2 4 5 4 4 4 5 7 7 10 7 6 3 4 3 3 5 8 7 5 7 7 3 2 2 3 2 2 2 2 2 5 7 7
4 2 2 2 1 1 1 2 3 4 4 3 2 3 3 4 4 9 9 10 10 3 3 3 4 5 6 5 9 9 7 3 1 1 2 2 2 2 4 4 8 10 10
3 2 1 1 2 3 2 1 3 2 3 3 2 2 0 1 3 4 4 4 7 5 7 3 3 4 4 3 3 5 4 4 3 2 2 3 1 3 4 3 4 6 7
4 3 3 3 4 4 2 2 1 0 1 3 3 3 2 2 1 1 2 3 3 4 6 1 2 2 2 2 2 3 4 4 3 3 2 2 4 4 4 4 3 4 4
3 3 4 4 3 4 4 2 5 3 2 6 3 3 1 1 1 2 2 3 4 6 1 2 1 2 2 1 2 2 3 4 3 3 3 3 4 4 4 3 3 5 5
4 2 0 1 2 3 3 2 3 1 1 2 2 4 3 1 3 5 7 7 3 2 2 2 2 2 2 1 1 1 1 2 3 3 3 3 4 4 3 4 3 4 3
3 4 0 2 3 2 2 2 3 3 2 3 6 4 5 5 3 5 7 7 2 1 1 1 1 1 1 1 1 0 2 2 2 3 4 3 3 3 3 3 3 2 3
3 2 2 2 1 1 1 2 1 3 3 2 1 2 7 6 3 5 4 1 1 3 3 3 2 2 2 3 2 2 1 1 2 3 3 4 4 3 3 3 3 4 5
2 5 4 3 2 3 1 2 3 2 3 4 4 4 2 2 2 2 3 2 3 4 3 4 3 2 2 3 3 2 2 1 2 3 3 4 4 4 3 4 3 3 2
2 4 3 2 3 3 1 3 3 3 4 4 5 5 9 5 4 3 3 4 5 4 3 4 3 3 3 3 4 4 3 3 3 3 3 4 4 3 3 3 3 3 3
2 2 2 3 3 3 3 2 3 4 3 3 3 2 11 3 3 2 3 4 5 5 4 4 3 3 4 4 4 4 3 3 3 3 3 4 4 4 4 4 2 2 3
2 0 3 4 4 5 2 3 3 3 3 3 4 4 4 4 4 4 2 3 3 3 4 3 4 3 2 1 3 4 4 4 3 4 4 4 4 4 4 4 3 3 3
2 1 2 4 2 2 3 2 2 4 4 1 4 3 5 5 5 5 5 4 3 3 3 3 3 5 4 2 2 3 4 4 3 4 5 5 4 4 3 4 3 3 3
3 3 2 4 5 5 4 2 1 2 2 2 2 3 4 4 4 5 4 3 3 2 2 3 3 6 5 5 4 3 2 9 6 7 4 5 6 6 5 3 3 3 3
4 4 4 3 3 4 4 2 1 0 1 1 1 2 3 4 5 5 5 4 4 3 3 4 6 7 6 5 3 4 5 8 7 8 6 5 5 5 4 4 5 3 3
Wind_Direction
199 203 193 204 209 204 212 202 201 208 214 222 203 223 242 242 238 219 222 226 221 235 242 228 234 233 245 252 213 160 187 154 240 309 222 211 182 184 199 165 168 183 192
200 192 202 206 200 197 210 217 206 212 213 221 213 212 232 230 229 219 231 232 231 251 256 246 240 235 239 241 207 215 209 173 188 258 287 240 204 198 193 178 174 181 183
188 193 199 197 192 200 211 215 213 203 211 215 219 223 226 232 263 341 8 345 278 239 241 248 252 249 256 226 233 273 206 115 81 70 302 314 270 215 196 201 193 191 183
177 181 189 185 198 208 212 213 220 230 220 214 220 221 210 66 49 0 14 325 289 283 276 271 268 243 232 155 127 169 156 107 124 114 40 293 307 298 284 206 206 167 181
140 162 193 173 157 161 234 244 254 271 257 283 285 277 110 109 102 98 279 263 268 285 283 266 266 264 240 230 192 224 199 179 186 215 236 271 260 247 221 197 207 204 181
75 87 97 104 108 112 80 70 66 35 28 52 53 24 36 161 167 190 215 242 250 264 279 260 253 252 234 205 205 212 201 208 235 225 217 230 241 227 200 210 163 153 207
80 70 77 72 73 71 69 56 57 51 28 17 28 30 11 163 195 212 230 241 250 266 274 289 295 290 290 303 268 260 278 238 231 203 208 214 226 209 206 188 185 188 178
62 66 68 68 66 63 64 66 59 25 18 15 28 56 173 275 254 232 237 236 246 262 273 286 302 293 281 284 333 313 288 278 231 221 211 222 225 214 198 189 186 165 93
68 69 66 67 65 56 55 46 38 47 26 17 7 7 10 325 239 224 202 294 300 322 333 360 337 358 46 346 188 4 315 275 211 213 207 188 187 183 181 152 181 176 164
90 88 84 84 80 74 66 42 27 30 6 12 15 14 20 54 66 106 127 42 2 324 315 20 33 32 7 352 46 40 18 343 295 323 339 326 193 191 190 196 183 186 153
114 90 80 88 98 89 48 26 15 14 18 11 69 53 52 48 47 54 48 78 34 320 328 40 352 13 30 17 32 43 344 319 20 87 65 61 58 56 58 21 193 179 146
133 118 90 70 148 108 80 4 343 27 43 33 92 67 47 43 40 34 24 15 348 3 20 356 343 25 39 32 23 351 352 29 23 68 88 67 71 69 72 21 56 70 50
122 143 133 144 179 252 334 319 42 47 84 52 76 74 42 19 26 30 29 31 38 22 359 12 6 6 21 35 28 18 7 29 62 100 107 82 81 79 91 74 70 87 74
157 203 216 262 300 325 345 59 118 129 124 122 104 129 88 354 11 19 19 4 9 12 350 7 40 47 42 18 24 20 23 22 50 68 66 84 60 63 83 66 91 90 88
188 221 250 231 236 259 257 338 25 230 318 158 165 165 152 339 10 308 5 2 352 330 313 286 360 359 352 11 14 34 42 30 41 56 74 71 84 82 67 75 78 56 74
190 236 259 248 248 232 238 187 54 84 51 68 111 138 171 25 324 322 334 318 320 341 16 344 85 31 355 339 33 32 40 65 64 80 62 72 82 81 99 79 62 102 103
197 247 224 194 280 262 188 198 228 211 142 169 200 120 103 253 325 340 334 341 303 19 36 8 41 32 1 37 197 152 186 177 148 118 113 102 104 103 108 105 102 104 103
202 219 286 291 249 297 177 184 195 167 184 244 222 231 222 244 291 328 334 332 28 334 241 223 152 125 65 76 49 259 196 163 161 139 129 136 134 129 126 126 132 119 123
206 247 240 293 320 315 188 208 171 155 159 209 240 249 227 242 266 282 314 275 304 299 209 235 195 194 156 131 102 75 32 96 143 141 138 139 140 134 127 131 127 127 119
256 268 263 288 299 299 331 144 162 175 212 200 214 226 153 96 247 231 210 207 241 245 234 224 229 205 171 159 140 123 114 88 137 146 146 153 153 151 149 157 152 143 146
255 314 287 228 265 262 249 173 194 223 193 199 225 212 181 173 229 247 243 224 203 200 227 211 210 205 195 179 159 165 186 161 159 165 163 160 156 155 168 149 147 139 99
223 306 349 253 248 271 213 185 213 241 268 251 250 150 169 193 250 256 259 214 191 185 196 197 209 200 198 189 193 194 172 168 169 172 164 153 155 151 145 145 166 176 150
189 72 317 307 231 200 228 220 235 260 248 225 262 162 191 181 206 195 220 213 204 170 198 209 188 189 210 197 195 202 187 203 187 168 167 156 157 149 150 150 152 146 151
232 224 281 315 330 249 215 254 310 325 299 212 254 168 177 191 193 219 228 203 217 211 205 203 190 180 189 193 228 226 204 186 162 174 153 147 148 148 141 139 148 181 168
222 256 244 223 239 223 241 230 294 338 323 160 139 180 198 187 186 206 201 213 209 153 157 208 195 206 200 196 223 192 138 153 150 147 142 139 154 161 158 144 148 173 172
214 237 274 281 207 218 222 191 122 143 158 86 5 293 230 219 208 188 194 197 221 215 225 211 206 196 181 167 175 133 153 172 160 160 150 148 151 155 160 164 177 184 196